Date,TemperatureHighF,TemperatureAvgF,TemperatureLowF,DewpointHighF,DewpointAvgF,DewpointLowF,HumidityHigh,HumidityAvg,HumidityLow,PressureMaxIn,PressureMinIn,WindSpeedMaxMPH,WindSpeedAvgMPH,GustSpeedMaxMPH,PrecipitationSumIn
2013-1-1,16.8,8.2,2.8,11.4,2.0,-2.5,79,75,70,29.11,29.03,13,7,15,0.00
2013-1-2,24.6,15.5,6.9,20.3,9.7,0.9,84,78,74,29.05,28.89,17,10,19,0.00
2013-1-3,26.2,17.4,8.9,22.5,12.3,4.3,86,81,77,29.18,28.95,22,15,26,0.00
2013-1-4,28.9,18.6,7.1,21.9,13.5,2.8,84,80,74,29.11,29.01,23,13,26,0.00
2013-1-5,34.3,26.3,18.3,30.4,21.9,14.1,86,83,79,29.08,28.80,24,13,28,0.00
2013-1-6,23.0,17.6,13.6,17.7,12.5,9.1,84,80,76,29.17,28.81,22,12,24,0.00
2013-1-7,34.8,25.7,14.1,27.1,19.9,9.6,82,79,73,29.15,28.91,26,16,30,0.00
2013-1-8,36.6,31.5,25.1,30.8,26.1,20.4,84,80,78,28.96,28.81,25,15,26,0.00
2013-1-9,36.3,32.5,27.6,30.4,26.3,21.9,83,78,71,29.35,28.88,23,14,29,0.00
2013-1-10,39.0,33.6,27.5,33.4,26.8,21.9,88,76,61,29.35,28.65,20,10,25,0.00
2013-1-11,43.5,39.4,35.4,41.0,36.7,32.7,91,90,88,28.68,28.44,25,13,27,0.00
2013-1-12,46.0,28.7,19.0,42.1,22.9,12.0,89,79,74,28.91,28.47,31,18,40,0.00
2013-1-13,18.6,12.8,10.0,11.6,6.2,4.1,79,75,71,29.11,28.79,25,14,30,0.00
2013-1-14,24.9,15.9,7.5,15.8,9.0,2.3,80,74,65,29.31,29.11,15,7,18,0.00
2013-1-15,30.0,21.2,15.4,17.6,13.0,9.1,78,71,59,29.30,28.98,20,10,21,0.00
2013-1-16,36.3,27.0,16.7,31.0,20.7,9.9,86,77,70,28.97,28.69,23,15,29,0.00
2013-1-17,30.5,22.5,16.5,24.8,14.1,8.0,79,70,60,29.26,28.96,21,10,23,0.00
2013-1-18,46.2,33.9,22.4,33.8,25.9,16.0,79,73,61,29.24,28.75,30,17,36,0.00
2013-1-19,46.0,35.5,14.1,36.1,27.6,4.1,81,73,61,28.97,28.66,37,18,50,0.00
2013-1-20,15.0,10.6,6.2,5.0,2.0,-1.1,75,68,59,29.20,28.97,25,13,30,0.00
2013-1-21,10.9,2.9,-2.3,3.5,-6.3,-11.0,73,65,58,29.13,29.02,23,17,32,0.00
2013-1-22,10.2,3.6,-3.4,1.0,-5.1,-10.5,75,67,60,29.22,29.12,21,10,22,0.00
2013-1-23,23.7,14.0,4.8,15.1,5.8,-4.8,77,70,63,29.27,28.95,30,13,32,0.00
2013-1-24,18.3,9.4,0.3,8.7,-0.5,-8.1,70,64,55,29.48,29.12,20,10,24,0.00
2013-1-25,27.6,20.6,12.0,17.6,10.8,3.7,73,66,56,29.12,28.83,23,15,30,0.00
2013-1-26,27.6,16.8,7.5,14.1,7.4,0.6,75,67,55,29.24,29.09,21,7,23,0.00
2013-1-27,34.8,30.0,24.8,31.8,23.7,14.2,89,78,63,29.16,28.72,21,13,24,0.00
2013-1-28,42.6,37.9,34.5,38.3,34.6,31.8,90,88,83,28.82,28.57,19,8,21,0.00
2013-1-29,52.5,41.7,32.7,50.1,39.0,30.1,91,90,89,28.62,28.40,22,13,28,0.00
2013-1-30,32.7,24.7,13.8,30.1,21.4,9.3,90,87,80,28.59,28.26,32,20,36,0.00
2013-1-31,13.6,4.8,-3.2,9.1,-0.2,-8.5,82,79,76,29.10,28.59,27,19,35,0.00
2013-2-1,10.9,0.2,-7.4,6.4,-5.2,-12.8,82,78,73,29.21,28.97,21,12,24,0.00
2013-2-2,17.4,13.3,9.6,13.2,8.2,4.9,85,80,74,28.99,28.88,21,8,22,0.00
2013-2-3,21.0,16.5,12.9,15.8,11.3,7.4,86,80,74,28.94,28.80,22,11,24,0.00
2013-2-4,20.8,18.4,13.6,16.6,13.1,7.7,85,80,74,28.83,28.70,22,10,24,0.00
2013-2-5,31.8,23.7,13.6,26.0,18.6,8.3,85,81,76,28.97,28.66,20,12,24,0.00
2013-2-6,34.8,27.5,16.1,30.1,22.2,11.0,83,80,76,29.05,28.88,17,8,19,0.00
2013-2-7,35.6,33.2,28.0,32.3,29.6,24.3,90,87,83,28.97,28.77,16,6,17,0.00
2013-2-8,31.1,26.4,24.0,24.4,21.3,18.8,86,81,75,29.21,28.97,12,2,15,0.00
2013-2-9,30.7,27.2,23.7,25.7,22.8,19.5,86,84,81,29.20,28.86,23,14,26,0.00
2013-2-10,42.0,35.1,28.5,39.6,32.0,24.6,91,88,84,28.87,28.27,33,16,38,0.00
2013-2-11,33.0,27.6,22.1,29.3,22.2,16.2,86,80,76,28.93,28.34,36,25,45,0.00
2013-2-12,34.8,27.1,21.3,27.6,21.6,16.4,83,79,74,28.97,28.75,22,12,27,0.00
2013-2-13,37.5,31.5,25.5,32.2,26.8,21.5,86,83,79,28.76,28.51,15,8,17,0.00
2013-2-14,35.7,33.3,25.7,30.7,27.3,18.1,85,79,69,28.90,28.49,22,15,30,0.00
2013-2-15,25.5,20.1,13.2,17.9,11.0,5.9,73,68,58,29.12,28.90,24,14,29,0.00
2013-2-16,23.0,15.4,10.7,14.7,8.0,4.3,78,72,67,29.09,29.00,20,8,22,0.00
2013-2-17,31.6,23.2,12.2,21.9,15.6,5.9,77,72,67,29.02,28.70,21,13,29,0.00
2013-2-18,44.4,31.5,14.7,36.2,25.3,8.6,84,78,72,28.70,28.40,32,18,41,0.00
2013-2-19,14.5,8.3,3.5,8.9,2.0,-2.9,79,75,71,29.12,28.58,32,20,42,0.00
2013-2-20,22.6,11.8,3.0,13.8,4.6,-3.4,77,73,66,29.25,29.12,18,9,21,0.00
2013-2-21,25.5,19.8,13.8,21.8,14.1,7.2,86,78,72,29.22,28.80,25,14,31,0.00
2013-2-22,32.1,26.5,22.1,26.4,21.9,17.6,86,83,77,28.81,28.65,20,4,23,0.00
2013-2-23,25.8,20.7,17.6,19.2,15.4,12.3,84,80,73,28.87,28.76,16,3,17,0.00
2013-2-24,34.5,25.4,17.2,24.8,18.5,12.3,81,75,67,29.03,28.85,10,4,11,0.00
2013-2-25,38.1,31.3,24.6,29.5,24.5,18.7,80,76,70,29.01,28.82,17,7,20,0.00
2013-2-26,32.5,30.8,28.5,26.6,25.4,23.9,87,80,76,28.82,28.51,30,21,36,0.00
2013-2-27,31.8,30.0,28.0,27.8,26.4,24.3,88,86,83,28.72,28.53,23,17,25,0.00
2013-2-28,33.2,30.7,27.6,27.7,25.4,22.8,87,81,74,29.00,28.72,22,14,24,0.00
2013-3-1,27.6,25.0,18.8,22.8,17.8,12.1,82,74,70,29.15,28.98,21,13,24,0.00
2013-3-2,28.2,19.8,13.1,17.3,11.1,7.3,78,69,53,29.13,29.04,13,6,15,0.00
2013-3-3,32.7,23.5,14.7,18.5,12.4,5.7,69,62,52,29.07,28.91,12,5,14,0.00
2013-3-4,33.2,27.5,23.3,24.8,19.1,12.1,79,71,62,28.93,28.79,24,15,31,0.00
2013-3-5,30.0,27.4,25.5,25.7,23.1,20.9,86,84,79,29.02,28.75,22,13,25,0.00
2013-3-6,30.0,24.5,18.8,22.5,18.9,13.3,83,79,72,29.22,29.02,22,10,24,0.00
2013-3-7,35.2,24.5,16.8,26.7,18.2,11.7,82,77,69,29.27,29.21,14,6,14,0.00
2013-3-8,37.9,29.8,21.7,29.7,23.6,16.7,82,78,71,29.27,29.08,21,11,22,0.00
2013-3-9,38.1,35.2,31.8,35.4,31.2,26.7,90,86,80,29.08,28.63,24,15,30,0.00
2013-3-10,39.0,36.9,34.1,36.5,34.4,31.5,91,91,90,28.64,28.44,27,10,30,0.00
2013-3-11,33.9,31.2,27.1,31.5,28.2,22.8,91,88,84,28.72,28.51,15,2,18,0.00
2013-3-12,31.2,26.2,22.2,26.7,20.9,16.4,85,80,73,28.96,28.71,33,15,36,0.00
2013-3-13,31.2,24.0,18.6,20.1,15.1,12.3,81,69,50,29.21,28.96,24,14,26,0.00
2013-3-14,37.2,29.2,21.9,30.6,23.3,14.7,84,78,73,29.19,28.93,19,7,22,0.00
2013-3-15,37.7,32.9,29.8,33.6,29.1,25.8,89,86,84,28.93,28.62,20,8,22,0.00
2013-3-16,33.0,29.8,25.5,30.1,25.7,18.6,89,85,75,29.03,28.65,17,7,20,0.00
2013-3-17,34.3,27.1,21.0,25.8,19.7,13.3,78,73,69,29.07,28.84,22,14,24,0.00
2013-3-18,33.2,26.1,15.6,28.5,21.0,9.8,85,81,77,28.83,28.50,32,15,41,0.00
2013-3-19,25.3,17.6,10.4,15.4,10.2,4.7,80,73,65,29.01,28.69,28,20,37,0.00
2013-3-20,20.4,14.0,7.8,9.8,5.2,0.1,75,68,62,29.01,28.91,29,18,35,0.00
2013-3-21,28.9,19.9,8.4,16.5,10.2,2.1,75,66,59,28.96,28.88,13,5,16,0.00
2013-3-22,35.2,25.5,16.5,23.1,15.3,8.2,72,65,58,28.93,28.88,9,3,10,0.00
2013-3-23,37.7,31.4,24.0,24.2,21.6,17.2,77,67,56,28.99,28.88,12,5,15,0.00
2013-3-24,32.0,29.4,27.3,26.0,24.2,22.0,86,81,69,28.92,28.67,23,14,25,0.00
2013-3-25,32.9,29.8,25.5,24.3,22.5,18.9,83,74,69,29.01,28.72,22,16,25,0.00
2013-3-26,36.3,31.1,24.9,24.9,22.1,18.1,77,69,61,29.16,29.01,19,8,21,0.00
2013-3-27,39.3,32.6,28.7,25.0,22.8,21.0,74,67,55,29.21,29.15,11,4,14,0.00
2013-3-28,44.9,36.7,30.0,31.3,25.3,19.5,68,63,54,29.23,29.14,7,3,9,0.00
2013-3-29,51.9,41.0,33.6,36.9,30.4,25.1,73,66,55,29.19,29.08,10,4,10,0.00
2013-3-30,49.8,42.9,37.0,42.8,35.6,27.7,87,76,66,29.07,28.74,24,14,28,0.00
2013-3-31,43.7,37.6,31.1,39.0,31.5,22.4,89,79,63,28.86,28.68,26,14,33,0.00
2013-4-1,34.8,29.4,24.6,22.4,19.1,16.8,74,66,52,29.11,28.86,22,15,26,0.00
2013-4-2,38.1,30.5,24.4,23.2,19.2,16.8,77,63,48,29.20,29.10,22,10,25,0.00
2013-4-3,44.9,34.1,25.1,24.2,20.0,16.1,70,57,42,29.29,29.14,15,6,19,0.00
2013-4-4,55.9,42.4,31.6,39.9,29.2,20.1,66,60,52,29.14,28.87,22,13,26,0.00
2013-4-5,50.7,41.6,32.1,29.7,26.6,23.6,71,56,42,29.10,28.89,20,10,24,0.00
2013-4-6,60.6,47.5,36.6,47.1,34.4,17.6,82,61,43,28.89,28.46,30,17,32,0.00
2013-4-7,60.6,46.7,35.9,43.4,36.9,30.5,81,70,52,28.84,28.59,23,10,77,0.00
2013-4-8,65.4,52.5,41.5,54.6,45.5,37.1,88,78,66,28.79,28.53,20,9,24,0.00
2013-4-9,52.3,43.2,38.4,46.4,39.8,35.2,90,88,80,28.82,28.67,29,19,37,0.00
2013-4-10,38.4,35.7,33.6,35.3,32.8,30.3,90,89,88,28.96,28.57,33,19,39,0.00
2013-4-11,42.9,38.8,35.7,40.2,36.0,32.7,91,90,89,28.64,28.44,36,16,41,0.00
2013-4-12,37.9,35.0,32.5,35.2,31.3,27.0,91,86,80,28.76,28.44,22,13,27,0.00
2013-4-13,41.5,35.0,30.5,31.7,28.1,25.1,83,76,67,28.84,28.73,22,12,26,0.00
2013-4-14,66.5,47.3,33.6,52.4,39.5,28.6,86,75,56,28.83,28.38,22,16,27,0.00
2013-4-15,51.2,45.8,39.0,47.1,39.0,34.0,86,77,71,28.78,28.48,35,14,86,0.00
2013-4-20,47.1,40.5,32.9,30.2,27.1,23.7,82,59,47,29.21,29.07,13,2,13,0.00
2013-4-21,56.1,43.8,0.0,41.9,33.1,-8.0,73,66,58,29.27,29.05,12,0,14,0.00
2013-4-22,63.6,53.9,44.7,46.1,41.1,37.3,76,63,45,29.08,28.85,26,7,27,0.00
2013-4-23,52.1,51.2,50.5,44.6,44.3,43.9,79,77,75,28.88,28.85,6,5,6,0.00
2013-4-29,74.8,70.9,65.4,60.0,58.1,56.5,73,64,57,28.59,28.56,32,13,111,0.00
2013-4-30,86.0,72.2,60.9,57.9,53.1,48.9,81,55,30,28.80,28.53,42,17,111,0.00
2013-5-1,75.3,63.6,54.1,55.5,49.3,43.7,71,60,48,28.97,28.80,35,11,110,0.00
2013-5-2,45.1,38.9,33.9,36.6,33.7,30.4,87,82,72,29.17,29.06,37,20,102,0.00
2013-5-3,33.9,33.0,32.7,30.4,29.7,29.5,89,88,87,29.10,28.98,38,15,102,0.00
2013-5-4,56.4,54.6,53.4,53.8,52.0,50.8,91,91,90,29.00,28.92,13,11,14,0.00
2013-5-6,73.0,68.5,64.5,47.9,45.9,44.2,48,44,41,29.04,28.99,6,2,7,0.00
2013-5-7,76.2,71.1,63.1,52.1,47.7,42.6,63,44,37,29.03,28.98,10,2,13,0.00
2013-5-8,76.8,66.6,57.0,53.2,48.7,41.9,71,53,40,29.02,28.96,18,6,26,0.00
2013-5-9,66.0,61.4,57.0,59.3,54.8,52.6,88,79,71,28.97,28.81,18,6,22,0.00
2013-5-10,56.8,52.9,0.0,50.6,46.9,-5.2,86,80,77,28.95,28.83,0,0,0,0.00
2013-5-11,50.9,48.0,40.8,46.1,35.2,25.1,89,63,40,28.99,28.75,0,0,0,0.00
2013-5-12,56.3,44.9,35.2,31.5,27.5,24.8,66,52,37,29.05,28.96,0,0,0,0.00
2013-5-13,66.9,54.0,40.4,43.5,34.1,25.7,60,48,33,29.05,28.76,0,0,0,0.00
2013-5-14,90.1,71.0,53.2,61.3,53.1,42.2,74,55,31,28.76,28.51,0,0,0,0.00
2013-5-15,79.8,69.7,60.6,57.3,46.8,41.6,59,45,32,28.81,28.59,0,0,0,0.00
2013-5-16,83.3,70.3,57.5,53.2,48.6,42.7,65,47,34,28.84,28.77,0,0,0,0.00
2013-5-17,77.1,66.3,0.0,60.2,52.1,-9.6,67,60,54,28.90,28.81,0,0,0,0.00
2013-5-18,83.1,69.5,55.7,65.3,57.4,47.7,78,66,51,28.91,28.76,0,0,0,0.00
2013-5-19,83.8,71.7,64.0,69.8,61.4,54.9,85,71,53,28.81,28.46,0,0,0,0.00
2013-5-20,81.5,69.8,60.6,64.7,60.1,56.4,86,73,52,28.63,28.49,0,0,0,0.00
2013-5-21,73.9,65.9,0.0,59.4,56.5,0.0,86,72,38,28.58,28.49,0,0,0,0.00
2013-5-22,67.1,60.9,57.3,55.8,53.4,51.2,86,77,62,28.66,28.53,0,0,0,0.00
2013-5-23,65.4,55.2,0.0,54.2,46.6,-12.7,88,73,48,29.15,28.66,0,0,0,0.00
2013-5-24,71.2,56.3,42.9,48.7,41.1,35.7,77,58,40,29.31,29.15,0,0,0,0.00
2013-5-25,57.7,48.2,0.0,47.3,41.3,-5.7,82,77,53,29.23,29.13,0,0,0,0.00
2013-5-26,54.1,49.2,0.0,50.6,43.0,-6.0,88,79,70,29.14,28.94,0,0,0,0.00
2013-5-27,61.5,55.9,0.0,58.2,52.7,-2.7,90,89,88,28.94,28.70,0,0,0,0.00
2013-5-28,71.4,62.8,55.0,67.6,59.6,52.1,91,89,83,28.71,28.57,0,0,0,0.00
2013-5-29,80.2,66.8,0.0,70.4,61.3,-6.6,89,83,72,28.79,28.64,0,0,0,0.00
2013-5-30,76.6,70.0,63.1,68.2,63.8,58.2,87,81,70,28.72,28.53,0,0,0,0.00
2013-5-31,75.0,67.1,60.0,64.3,60.7,56.8,89,80,66,28.66,28.54,0,0,0,0.00
2013-6-1,66.3,65.9,64.0,62.6,61.6,60.8,89,86,84,28.56,28.54,0,0,0,0.00
2013-6-2,56.6,56.6,56.6,45.3,45.3,45.3,66,66,66,28.89,28.89,0,0,0,0.00
2013-6-3,77.0,65.1,58.2,52.1,47.1,45.3,63,53,41,28.96,28.90,0,0,0,0.00
2013-6-4,65.8,58.8,55.2,52.2,48.7,45.6,82,70,55,29.06,28.93,0,0,0,0.00
2013-6-5,67.2,58.4,53.2,60.9,53.4,48.3,87,83,76,28.96,28.79,0,0,0,0.00
2013-6-6,64.2,59.4,56.4,57.9,54.3,52.1,88,83,77,28.85,28.77,0,0,0,0.00
2013-6-7,71.9,61.4,54.1,56.1,52.7,50.3,87,74,56,28.88,28.82,0,0,0,0.00
2013-6-8,73.2,64.5,0.0,59.1,52.8,-11.6,78,66,57,28.86,28.81,0,0,0,0.00
2013-6-9,73.0,65.1,60.6,64.2,56.0,48.1,85,73,60,28.83,28.67,0,0,0,0.00
2013-6-10,79.5,66.4,0.0,63.4,58.9,-9.9,90,78,58,28.82,28.66,0,0,0,0.00
2013-6-11,86.7,73.1,61.1,70.0,62.9,55.4,83,71,52,28.83,28.71,0,0,0,0.00
2013-6-12,85.2,73.7,65.8,73.0,65.9,61.8,87,77,66,28.81,28.47,0,0,0,0.00
2013-6-13,81.1,68.9,0.0,63.1,57.3,0.0,87,68,45,28.93,28.64,0,0,0,0.00
2013-6-14,82.7,67.7,0.0,62.2,55.3,-8.3,78,65,49,29.03,28.84,0,0,0,0.00
2013-6-15,81.8,73.3,0.0,69.5,64.2,-5.5,84,73,64,28.89,28.70,0,0,0,0.00
2013-6-16,86.7,74.5,64.7,64.5,57.8,49.7,88,60,34,28.84,28.78,0,0,0,0.00
2013-6-17,87.9,76.0,64.5,59.8,55.4,51.2,67,50,34,28.84,28.74,0,0,0,0.00
2013-6-18,81.1,67.2,60.0,59.3,54.3,51.0,74,64,46,28.95,28.80,0,0,0,0.00
2013-6-19,86.1,70.3,56.1,63.0,54.9,45.2,70,59,45,29.01,28.90,0,0,0,0.00
2013-6-20,88.8,76.3,64.5,65.0,59.9,53.6,71,58,43,28.99,28.85,0,0,0,0.00
2013-6-21,77.7,72.3,64.5,68.9,64.0,58.8,86,75,63,29.04,28.81,0,0,0,0.00
2013-6-22,85.6,85.6,85.6,76.8,76.5,76.4,75,74,74,28.75,28.75,0,0,0,0.00
2013-6-23,73.2,71.0,67.8,64.4,63.2,60.7,79,77,73,28.87,28.80,0,0,0,0.00
2013-6-24,69.8,67.1,64.9,64.6,62.4,61.0,89,85,79,28.92,28.74,0,0,0,0.00
2013-6-25,79.3,70.5,64.0,74.6,66.2,60.4,91,86,79,28.83,28.66,0,0,0,0.00
2013-6-26,73.5,72.5,69.6,69.1,68.3,64.8,88,87,86,28.67,28.62,0,0,0,0.00
2013-7-1,61.3,14.0,-12.1,29.8,3.5,-18.1,81,68,17,29.03,28.99,0,0,0,0.00
2013-7-2,22.4,-3.7,-21.4,-5.8,-24.4,-49.6,57,37,13,29.02,28.98,0,0,0,0.00
2013-7-3,-21.8,-21.8,-21.8,-57.9,-57.9,-57.9,12,12,12,28.93,28.93,0,0,0,0.00
2013-7-4,0.0,0.0,0.0,0.0,0.0,0.0,68,68,68,28.94,28.94,0,0,0,0.00
2013-7-9,0.0,0.0,0.0,0.0,0.0,0.0,43,32,10,28.85,28.82,0,0,0,0.00
2013-7-10,0.0,0.0,0.0,0.0,0.0,0.0,55,55,55,28.93,28.92,0,0,0,0.00
2013-7-13,0.0,0.0,0.0,0.0,0.0,0.0,43,43,43,29.07,29.07,0,0,0,0.00
2013-7-15,0.0,0.0,0.0,0.0,0.0,0.0,55,55,55,29.21,29.21,0,0,0,0.00
2013-7-16,0.0,0.0,0.0,0.0,0.0,0.0,55,55,55,29.24,29.24,0,0,0,0.00
2013-7-22,0.0,0.0,0.0,0.0,0.0,0.0,58,58,58,28.79,28.79,0,0,0,0.00
2013-7-29,0.0,0.0,0.0,0.0,0.0,0.0,10,10,10,29.16,29.16,0,0,0,0.00
2013-7-31,0.0,0.0,0.0,0.0,0.0,0.0,87,87,87,29.06,29.06,0,0,0,0.00
2013-8-2,0.0,0.0,0.0,0.0,0.0,0.0,29,29,29,28.91,28.91,0,0,0,0.00
2013-8-6,0.0,0.0,0.0,0.0,0.0,0.0,10,10,10,28.85,28.85,0,0,0,0.00
2013-8-7,0.0,0.0,0.0,0.0,0.0,0.0,70,70,70,28.89,28.89,0,0,0,0.00